Hastings, NE

6:27 AM CST on December 13, 2017 (GMT -0600)
Hastings Municipal

Weather History for KHSI - February, 2014

Change the Weather History Date:

Wednesday, February 26, 2014

  Actual Average Record
Temperature  
Mean Temperature 17 °F 33 °F  
Max Temperature 31 °F 43 °F 74 °F (1986)
Min Temperature 2 °F 23 °F -8 °F (1934)
Degree Days  
Heating Degree Days 48 32  
Month to date heating degree days 1077 919  
Since 1 July heating degree days 4799 4568  
Cooling Degree Days 0 0  
Month to date cooling degree days 0 0  
Year to date cooling degree days 0 0  
Moisture  
Dew Point 7 °F    
Average Humidity 67    
Maximum Humidity 87    
Minimum Humidity 46    
Precipitation  
Precipitation 0.00 in 0.02 in 0.45 in (1906)
Month to date precipitation 0.34 0.45  
Year to date precipitation 0.71 0.86  
Snow  
Snow 0.00 in 0.20 in 4.00 in (1912)
Month to date snowfall 7.5 6.1  
Since 1 July snowfall 18.3 22.0  
Snow Depth 0.00 in    
Sea Level Pressure  
Sea Level Pressure 30.23 in    
Wind  
Wind Speed 12 mph (West)    
Max Wind Speed 24 mph    
Max Gust Speed 33 mph    
Visibility 10 miles    
Events      
T = Trace of Precipitation, MM = Missing Value Source: NWS Daily Summary

Daily Weather History Graph

Daily Weather History Graph

Search for Another Location

Airport or City:

Trip Planner

Search our weather history database for the weather conditions in past years. The results will help you decide how hot, cold, wet, or windy it might be!

Date:

Astronomy

Feb. 26, 2014 Rise Set
Actual Time 7:11 AM CST 6:21 PM CST
Civil Twilight 6:44 AM CST 6:49 PM CST
Nautical Twilight 6:12 AM CST 7:20 PM CST
Astronomical Twilight 5:41 AM CST 7:52 PM CST
Moon 4:59 AM CST (2/26) 3:37 PM CST (2/26)
Length of Visible Light 12h 04m
Length of Day
11h 09m
Waning Crescent, 10% of the Moon is Illuminated
Feb 26
Waning Crescent
Mar 1
New
Mar 8
First Quarter
Mar 16
Full
Mar 23
Last Quarter

Hourly Weather History & Observations

Time (CST) Temp. Windchill Dew Point Humidity Pressure Visibility Wind Dir Wind Speed Gust Speed Precip Events Conditions
12:53 AM 5.0 °F -6.9 °F -2.0 °F 73% 30.56 in 10.0 mi WNW 6.9 mph - N/A   Clear
1:53 AM 5.0 °F -4.1 °F -2.0 °F 73% 30.52 in 10.0 mi WNW 4.6 mph - N/A   Clear
2:53 AM 5.0 °F -6.9 °F -2.0 °F 73% 30.49 in 10.0 mi West 6.9 mph - N/A   Clear
3:53 AM 3.9 °F -6.9 °F -2.0 °F 76% 30.45 in 10.0 mi West 5.8 mph - N/A   Clear
4:53 AM 3.9 °F -5.3 °F -2.0 °F 76% 30.42 in 10.0 mi SW 4.6 mph - N/A   Clear
5:53 AM 1.9 °F -7.6 °F -2.9 °F 80% 30.40 in 10.0 mi WSW 4.6 mph - N/A   Clear
6:53 AM 3.0 °F -8.0 °F -2.9 °F 76% 30.38 in 10.0 mi WSW 5.8 mph - N/A   Clear
7:53 AM 3.9 °F -6.9 °F -2.0 °F 76% 30.36 in 10.0 mi WSW 5.8 mph - N/A   Clear
8:53 AM 12.0 °F -1.3 °F 3.0 °F 67% 30.34 in 10.0 mi SW 10.4 mph - N/A   Clear
9:53 AM 18.0 °F 6.1 °F 6.1 °F 60% 30.28 in 10.0 mi SW 10.4 mph 19.6 mph N/A   Clear
10:53 AM 19.9 °F 3.5 °F 7.0 °F 57% 30.25 in 10.0 mi WSW 21.9 mph 27.6 mph N/A   Clear
11:53 AM 23.0 °F 9.2 °F 8.1 °F 53% 30.20 in 10.0 mi SW 17.3 mph 27.6 mph N/A   Clear
12:53 PM 25.0 °F 10.2 °F 9.0 °F 51% 30.17 in 10.0 mi West 21.9 mph 31.1 mph N/A   Clear
1:53 PM 28.0 °F 13.6 °F 10.9 °F 49% 30.13 in 10.0 mi WSW 24.2 mph 28.8 mph N/A   Clear
2:53 PM 30.0 °F 17.2 °F 12.9 °F 49% 30.08 in 10.0 mi West 20.7 mph 28.8 mph N/A   Clear
3:53 PM 30.0 °F 17.9 °F 12.9 °F 49% 30.06 in 10.0 mi West 18.4 mph 24.2 mph N/A   Clear
4:53 PM 30.0 °F 19.5 °F 14.0 °F 51% 30.05 in 10.0 mi West 13.8 mph - N/A   Clear
5:53 PM 30.0 °F 20.5 °F 15.1 °F 54% 30.04 in 10.0 mi West 11.5 mph - N/A   Clear
6:53 PM 25.0 °F 14.8 °F 16.0 °F 69% 30.05 in 10.0 mi West 10.4 mph - N/A   Clear
7:53 PM 25.0 °F 14.8 °F 14.0 °F 63% 30.05 in 10.0 mi West 10.4 mph - N/A   Clear
8:53 PM 23.0 °F 12.4 °F 14.0 °F 68% 30.05 in 10.0 mi West 10.4 mph - N/A   Clear
9:53 PM 21.9 °F 11.0 °F 12.0 °F 66% 30.05 in 10.0 mi West 10.4 mph - N/A   Clear
10:53 PM 19.9 °F 8.6 °F 12.0 °F 71% 30.06 in 10.0 mi West 10.4 mph - N/A   Clear
11:53 PM 17.1 °F 5.8 °F 10.9 °F 77% 30.07 in 10.0 mi WNW 9.2 mph - N/A   Clear